Location: Olsztyn
(53.7767°N, 20.4765°E)
Time: 19:36:31
(UTC+02:00)

Envisat - Pass Details

Date: 02 March 2024
Orbit: 762 x 764 km, 98.3° (Epoch: 20 April)

Event Time Altitude Azimuth Distance (km) Brightness Sun altitude
Rises 04:00:12 0° 12° (NNE) 3,246 6.7 -21.7°
Reaches altitude 10° 04:02:34 10° 7° (N) 2,315 5.8 -21.4°
Maximum altitude 04:07:28 49° 294° (WNW) 992 3.2 -20.7°
Enters shadow 04:08:20 44° 263° (W) 1,058 3.2 -20.6°
